STARLINK-2334, 47792

Orbit data source: Space-Track

STARLINK-2334, 47792 is a payload satellite owned by SpaceX/Seattle (US) in LEO that was launched on Thu, 11 Mar 2021 UTC via an FALCON 9 launch vehicle from the Air Force Eastern Test Range (AFETR). Payload-class satellites include a variety of spacecraft equipped with specific instruments for various scientific and technological missions. These include communications satellites like Starlink; space stations such as the ISS; scientific satellites like the Hubble; Earth observation satellites from companies like Planet Labs, Umbra, and HawkEye 360; GPS; miniature CubeSats for education and research; and military/defense satellites.

Loading next visibility...
Identifier
47792, 2021-018F
Orbit
LEO
Country
Flag of USUS
Related business
Manufacturer
SpaceX/Seattle
Mission
Operational Commercial Communications
Bus & Motor
STARLINK, Unknown motor
Mass
260 kg wet, ~248 kg dry
Launch date (UTC)
2021-03-11 (5 years ago)
Launch vehicle
FALCON 9
Launch site
Air Force Eastern Test Range (AFETR)
Object type
Payload
Rocket body
Debris
Shape & HBR
Box + 1 Pan, 10.1 m
Radar Cross Section
13.562 m², Large (>1 m²)

Expand to show TLE details & history
Last TLE update: 16 hours ago

TLE from 16 hours ago
0 STARLINK-2334
1 47792U 21018F   25292.11833635  .00003830  00000-0  27586-3 0  9996
2 47792  53.0515 147.1574 0001391  93.6055 266.5093 15.06396837255541
Epoch: 2025-10-19T02:50Z
TLE epoch observation values (Epoch: 2025-10-19T02:50:24.260Z)
Latitude
-0.00003°
Longitude
76.7167°
Altitude
548.159 km
Speed
7.589 km/s
True Right ascension
09h 48m 37s
True Declination
0° 00' 00"
Sunlit
Object was in daylight at epoch
Visualization orbit readout
Latitude
Unknown
Longitude
Unknown
Altitude
Unknown
Speed
Unknown
Apparent Right ascension
Unknown
Apparent Declination
Unknown
Sunlit
N/A
Visualization observer readout
Local Sidereal Time
13:29:56
Azimuth
Unknown
Elevation
Unknown
Doppler factor
Unknown
Orbital elements
Apogee altitude
548.456 km
Perigee altitude
546.529 km
Semi-major axis
6,925.629 km
Eccentricity
0.00014
Inclination
53.0515°
RAAN
147.1574°
Arg. of periapsis
93.6055°
True anomaly
266.49339°
Mean anomaly
266.5093°
Eccentric anomaly
266.50135°
Mean motion
3.76577 °/min
Orbital period
95.6 mins
BSTAR
0.00027586
Loading maneuver chart data...
Computing Atmospheric mass density...

Documentation

Showing up to 5 results
|